Weather History for KOFP - October, 2013

Change the Weather History Date:

Friday, October 11, 2013

  Actual Average Record
Temperature  
Mean Temperature 60 °F -  
Max Temperature 62 °F 69 °F 89 °F (2010)
Min Temperature 57 °F 46 °F 30 °F (1964)
Degree Days  
Heating Degree Days 6    
Growing Degree Days 10 (Base 50)    
Moisture  
Dew Point 59 °F    
Average Humidity 95    
Maximum Humidity 100    
Minimum Humidity 90    
Precipitation  
Precipitation 0.09 in - - ()
Sea Level Pressure  
Sea Level Pressure 29.94 in    
Wind  
Wind Speed 6 mph (NNW)    
Max Wind Speed 9 mph    
Max Gust Speed -    
Visibility 5 miles    
Events Rain    
Averages and records for this station are not official NWS values.
T = Trace of Precipitation, MM = Missing Value Source: NWS Daily Summary

Daily Weather History Graph

Daily Weather History Graph

Search for Another Location

Airport or City:

Trip Planner

Search our weather history database for the weather conditions in past years. The results will help you decide how hot, cold, wet, or windy it might be!

Date:

Astronomy

Oct. 11, 2013 Rise Set
Actual Time 7:14 AM EDT 6:37 PM EDT
Civil Twilight 6:48 AM EDT 7:03 PM EDT
Nautical Twilight 6:17 AM EDT 7:34 PM EDT
Astronomical Twilight 5:47 AM EDT 8:04 PM EDT
Moon 1:51 PM EDT (10/11) No Moon Set
Length of Visible Light 12h 15m
Length of Day
11h 23m
Waxing Crescent, 47% of the Moon is Illuminated
Oct 11
Waxing Crescent
Oct 11
First Quarter
Oct 18
Full
Oct 26
Last Quarter
Nov 3
New

Hourly Weather History & Observations

Time (EDT) Temp. Dew Point Humidity Pressure Visibility Wind Dir Wind Speed Gust Speed Precip Events Conditions
12:54 AM 57.0 °F 55.9 °F 96% 29.94 in 7.0 mi Variable 6.9 mph - N/A   Overcast
1:54 AM 57.0 °F 55.9 °F 96% 29.93 in 10.0 mi North 5.8 mph - N/A   Overcast
2:54 AM 57.0 °F 55.9 °F 96% 29.92 in 7.0 mi NW 5.8 mph - N/A   Overcast
3:54 AM 57.0 °F 55.9 °F 96% 29.91 in 9.0 mi NNW 6.9 mph - N/A   Overcast
4:54 AM 57.9 °F 57.0 °F 97% 29.92 in 5.0 mi Variable 4.6 mph - N/A   Overcast
5:54 AM 57.9 °F 57.0 °F 97% 29.91 in 8.0 mi NNW 4.6 mph - 0.01 in   Overcast
6:54 AM 57.9 °F 57.0 °F 97% 29.92 in 4.0 mi NNW 6.9 mph - 0.00 in   Overcast
7:54 AM 57.9 °F 57.0 °F 97% 29.93 in 2.5 mi NNW 9.2 mph - N/A   Overcast
8:14 AM 57.2 °F 57.2 °F 100% 29.94 in 3.0 mi NNW 6.9 mph - N/A   Overcast
8:54 AM 59.0 °F 57.0 °F 93% 29.94 in 10.0 mi Variable 6.9 mph - N/A   Overcast
9:54 AM 59.0 °F 57.0 °F 93% 29.95 in 10.0 mi Variable 3.5 mph - N/A   Overcast
10:54 AM 60.1 °F 57.9 °F 93% 29.96 in 10.0 mi Variable 5.8 mph - N/A   Overcast
11:54 AM 60.1 °F 59.0 °F 96% 29.96 in 3.0 mi NW 5.8 mph - N/A   Overcast
12:54 PM 62.1 °F 59.0 °F 90% 29.94 in 4.0 mi Variable 6.9 mph - N/A   Overcast
1:50 PM 62.6 °F 60.8 °F 94% 29.93 in 2.0 mi Variable 6.9 mph - N/A   Overcast
1:54 PM 62.1 °F 60.1 °F 93% 29.93 in 2.0 mi NNW 5.8 mph - N/A   Overcast
2:31 PM 62.6 °F 60.8 °F 94% 29.92 in 3.0 mi Variable 6.9 mph - 0.01 in   Overcast
2:49 PM 62.6 °F 60.8 °F 94% 29.92 in 1.8 mi NNW 5.8 mph - 0.01 in Rain Light Rain
2:54 PM 62.1 °F 60.1 °F 93% 29.92 in 1.5 mi Variable 5.8 mph - 0.01 in Rain Light Rain
3:01 PM 62.6 °F 60.8 °F 94% 29.92 in 3.0 mi Variable 4.6 mph - 0.01 in Rain Light Rain
3:54 PM 62.1 °F 60.1 °F 93% 29.93 in 7.0 mi Variable 4.6 mph - 0.01 in   Overcast
4:13 PM 62.6 °F 60.8 °F 94% 29.93 in 5.0 mi Variable 5.8 mph - N/A   Overcast
4:37 PM 62.6 °F 60.8 °F 94% 29.94 in 2.0 mi Variable 4.6 mph - N/A   Overcast
4:54 PM 61.0 °F 60.1 °F 97% 29.94 in 3.0 mi Variable 6.9 mph - N/A   Overcast
5:08 PM 60.8 °F 59.0 °F 94% 29.94 in 2.5 mi Variable 6.9 mph - N/A   Overcast
5:22 PM 60.8 °F 60.8 °F 100% 29.94 in 5.0 mi NW 3.5 mph - N/A   Overcast
5:45 PM 60.8 °F 59.0 °F 94% 29.94 in 6.0 mi NNW 5.8 mph - N/A   Overcast
5:54 PM 61.0 °F 59.0 °F 93% 29.94 in 8.0 mi Variable 3.5 mph - N/A   Overcast
6:54 PM 61.0 °F 59.0 °F 93% 29.95 in 5.0 mi Variable 4.6 mph - N/A   Overcast
7:54 PM 60.1 °F 59.0 °F 96% 29.96 in 6.0 mi Variable 3.5 mph - 0.02 in   Overcast
8:54 PM 61.0 °F 59.0 °F 93% 29.96 in 7.0 mi NNW 5.8 mph - N/A   Overcast
9:54 PM 61.0 °F 60.1 °F 97% 29.97 in 4.0 mi NNW 4.6 mph - 0.01 in Rain Light Rain
10:54 PM 61.0 °F 60.1 °F 97% 29.97 in 5.0 mi Variable 4.6 mph - 0.00 in   Overcast
11:08 PM 60.8 °F 60.8 °F 100% 29.97 in 3.0 mi NNW 4.6 mph - 0.01 in Rain Light Rain
11:54 PM 61.0 °F 60.1 °F 97% 29.96 in 3.0 mi Variable 3.5 mph - 0.03 in Rain Light Rain